EW9136 Weather Reports


Display with metric or nautical units.
time (UTC)temp
F
wind
direction
speed
MPH
gust
MPH
rain 1hr
in
rain 24hr
in
rain mn
in
humidity
%
barometer
mb
20230201124552 50 315 11.0 27.0 0.00 0.00 0.00 74 1015.9
20230201123051 51 275 12.0 25.0 0.00 0.00 0.00 72 1016.0
20230201121549 50 237 13.0 31.0 0.00 0.00 0.00 72 1016.1
20230201120048 50 238 13.0 30.0 0.00 0.00 0.00 72 1016.1
20230201114558 49 256 15.0 25.0 0.00 0.00 0.00 74 1016.1
20230201113042 48 269 11.0 23.0 0.00 0.00 0.00 76 1016.3
20230201111555 49 262 8.0 22.0 0.00 0.00 0.00 76 1016.2
20230201110048 49 275 11.0 24.0 0.00 0.00 0.00 77 1016.3
20230201104539 48 259 12.0 22.0 0.00 0.00 0.00 78 1016.2
20230201103047 47 271 8.0 22.0 0.00 0.00 0.00 80 1016.0
20230201101533 47 262 14.0 23.0 0.00 0.00 0.00 80 1015.8
20230201100044 46 240 12.0 23.0 0.00 0.00 0.00 81 1015.6
20230201094529 46 285 11.0 25.0 0.00 0.00 0.00 82 1015.6
20230201093019 45 242 12.0 24.0 0.00 0.00 0.00 83 1015.5
20230201091527 45 238 10.0 22.0 0.00 0.00 0.00 83 1015.4
20230201090018 44 258 12.0 24.0 0.00 0.00 0.00 83 1015.3
20230201084542 44 267 14.0 25.0 0.00 0.00 0.00 84 1015.1
20230201083049 44 255 14.0 29.0 0.00 0.00 0.00 84 1015.1
20230201081602 44 231 12.0 28.0 0.00 0.00 0.00 84 1014.9
20230201080048 44 216 14.0 27.0 0.00 0.00 0.00 84 1014.9
20230201074546 43 260 9.0 23.0 0.00 0.00 0.00 84 1014.9
20230201073046 43 244 10.0 27.0 0.00 0.00 0.00 84 1015.0
20230201071548 43 284 12.0 26.0 0.00 0.00 0.00 84 1015.1
20230201070046 43 240 11.0 19.0 0.00 0.00 0.00 85 1015.2
20230201064544 43 242 8.0 25.0 0.00 0.00 0.00 84 1015.0
20230201063045 43 286 12.0 25.0 0.00 0.00 0.00 84 1015.1
20230201061541 43 244 11.0 28.0 0.00 0.00 0.00 83 1015.1
20230201060056 44 258 11.0 26.0 0.00 0.00 0.00 82 1015.0
20230201054541 43 274 16.0 31.0 0.00 0.00 0.00 81 1015.1
20230201053049 43 239 12.0 27.0 0.00 0.00 0.00 81 1015.0
20230201051535 42 226 13.0 25.0 0.00 0.00 0.00 81 1015.1
20230201050033 42 219 9.0 25.0 0.00 0.00 0.00 81 1015.0
20230201044531 42 230 10.0 21.0 0.00 0.00 0.00 81 1015.1
20230201043034 42 206 10.0 22.0 0.00 0.00 0.00 82 1015.2
20230201041529 42 218 10.0 22.0 0.00 0.00 0.00 82 1015.3
20230201040034 42 252 11.0 24.0 0.00 0.00 0.00 82 1015.4
20230201034527 42 259 9.0 28.0 0.00 0.00 0.00 81 1015.5
20230201033026 42 252 13.0 25.0 0.00 0.00 0.00 81 1015.5
20230201031523 42 266 12.0 25.0 0.00 0.00 0.00 81 1015.4
20230201030023 42 275 11.0 25.0 0.00 0.00 0.00 82 1015.4
20230201024520 42 250 13.0 28.0 0.00 0.00 0.00 82 1015.7
20230201023017 42 264 12.0 23.0 0.00 0.00 0.00 82 1015.6
20230201021516 41 254 10.0 24.0 0.00 0.00 0.00 82 1015.6
20230201020014 41 230 10.0 23.0 0.00 0.00 0.00 83 1015.8
20230201014514 41 254 9.0 20.0 0.00 0.00 0.00 83 1015.9
20230201013011 42 247 13.0 21.0 0.00 0.00 0.00 83 1015.9
20230201011509 42 289 13.0 23.0 0.00 0.00 0.00 82 1015.8
20230201010006 42 260 12.0 24.0 0.00 0.00 0.00 82 1016.0
20230201004502 42 222 8.0 19.0 0.00 0.00 0.00 83 1016.2
20230201003059 42 207 13.0 24.0 0.00 0.00 0.00 82 1016.3
20230201001626 43 286 13.0 26.0 0.00 0.00 0.00 81 1016.3
20230201000055 43 263 10.0 21.0 0.00 0.00 0.00 81 1016.6
20230131234608 42 265 12.0 25.0 0.00 0.00 0.00 81 1016.5
20230131233052 42 264 12.0 21.0 0.00 0.00 0.00 82 1016.4
20230131231553 42 286 9.0 20.0 0.00 0.00 0.00 82 1016.2
20230131230051 42 258 14.0 26.0 0.00 0.00 0.00 82 1016.3
20230131224550 42 251 13.0 27.0 0.00 0.00 0.00 81 1016.4
20230131223053 43 243 14.0 27.0 0.00 0.00 0.00 79 1016.4
20230131221552 43 222 13.0 30.0 0.00 0.00 0.00 79 1016.3
20230131220055 43 256 14.0 27.0 0.00 0.00 0.00 79 1016.3
20230131214553 43 254 15.0 25.0 0.00 0.00 0.00 79 1016.1
20230131213045 42 255 12.0 25.0 0.00 0.00 0.00 78 1016.4
20230131211545 42 226 10.0 26.0 0.00 0.00 0.00 77 1016.4
20230131210046 42 236 13.0 23.0 0.00 0.00 0.00 77 1016.5
20230131204544 42 235 12.0 19.0 0.00 0.00 0.00 77 1016.5
20230131203049 42 266 13.0 26.0 0.00 0.00 0.00 77 1016.5
20230131201542 42 238 12.0 21.0 0.00 0.00 0.00 80 1016.5
20230131200143 42 237 10.0 19.0 0.00 0.00 0.00 80 1016.7
20230131194548 42 242 8.0 19.0 0.00 0.00 0.00 79 1016.6
20230131193039 42 263 11.0 23.0 0.00 0.00 0.00 79 1016.9
20230131191538 42 239 9.0 20.0 0.00 0.00 0.00 79 1016.8
20230131190037 43 250 15.0 32.0 0.00 0.00 0.00 78 1016.9
20230131184534 42 281 11.0 25.0 0.00 0.00 0.00 78 1016.9
20230131183032 42 230 12.0 21.0 0.00 0.00 0.00 78 1017.1
20230131181535 42 244 12.0 21.0 0.00 0.00 0.00 78 1017.4
20230131180033 42 246 9.0 18.0 0.00 0.00 0.00 77 1017.8
20230131174557 43 266 9.0 20.0 0.00 0.00 0.00 77 1017.6
20230131173056 43 285 13.0 27.0 0.00 0.00 0.00 76 1017.9
20230131171557 44 275 9.0 28.0 0.00 0.00 0.00 76 1017.9
20230131170107 43 257 11.0 21.0 0.00 0.00 0.00 76 1017.9
20230131164554 44 229 13.0 27.0 0.00 0.00 0.00 74 1018.0
20230131163052 44 289 15.0 26.0 0.00 0.00 0.00 72 1017.9
20230131161556 45 273 14.0 25.0 0.00 0.00 0.00 71 1017.6
20230131160103 45 261 15.0 29.0 0.00 0.00 0.00 70 1017.5
20230131154551 45 289 12.0 24.0 0.00 0.00 0.00 70 1017.6
20230131153050 46 229 12.0 22.0 0.00 0.00 0.00 69 1017.5
20230131151550 46 279 12.0 27.0 0.00 0.00 0.00 67 1017.3
20230131150050 46 307 12.0 28.0 0.00 0.00 0.00 67 1017.3
20230131144550 46 256 14.0 23.0 0.00 0.00 0.00 68 1017.3
20230131143100 47 270 18.0 32.0 0.00 0.00 0.00 66 1017.4
20230131141605 48 284 13.0 29.0 0.00 0.00 0.00 64 1017.1
20230131140052 48 262 11.0 31.0 0.00 0.00 0.00 64 1017.3
20230131134559 48 259 12.0 35.0 0.00 0.00 0.00 63 1017.3
20230131133049 48 269 11.0 29.0 0.00 0.00 0.00 65 1017.3
20230131131555 48 267 16.0 33.0 0.00 0.00 0.00 64 1017.2
20230131130045 48 273 14.0 31.0 0.00 0.00 0.00 65 1017.0